FW5165 Weather Reports


Display with metric or nautical units.
time (UTC)temp
F
wind
direction
speed
MPH
gust
MPH
rain 1hr
in
rain 24hr
in
rain mn
in
humidity
%
barometer
mb
20260504232540 52 116 0.0 1.0 0.06 0.15 0.15 91 1016.4
20260504232040 52 116 0.0 4.0 0.05 0.14 0.14 91 1016.3
20260504231558 52 134 1.0 4.0 0.06 0.14 0.14 91 1016.8
20260504231039 52 86 1.0 5.0 0.06 0.14 0.14 91 1017.0
20260504230539 52 103 1.0 5.0 0.07 0.14 0.14 91 1017.2
20260504230038 52 115 2.0 5.0 0.07 0.14 0.14 91 1016.9
20260504225538 52 155 1.0 5.0 0.07 0.13 0.13 91 1016.7
20260504225038 52 157 1.0 5.0 0.07 0.13 0.13 91 1016.7
20260504224541 52 162 1.0 5.0 0.06 0.12 0.12 91 1016.7
20260504224041 52 160 2.0 5.0 0.06 0.11 0.11 91 1016.8
20260504223538 53 154 2.0 5.0 0.06 0.10 0.10 91 1016.8
20260504223036 53 153 2.0 3.0 0.07 0.10 0.10 91 1016.8
20260504222538 53 140 0.0 4.0 0.06 0.09 0.09 91 1017.0
20260504222039 53 139 1.0 4.0 0.07 0.09 0.09 91 1017.1
20260504221547 53 159 0.0 4.0 0.06 0.08 0.08 91 1017.1
20260504221034 53 159 1.0 5.0 0.06 0.08 0.08 91 1017.1
20260504220535 53 159 3.0 5.0 0.05 0.07 0.07 91 1017.2
20260504220034 53 148 2.0 5.0 0.05 0.07 0.07 91 1017.2
20260504215536 53 188 1.0 8.0 0.05 0.06 0.06 90 1017.0
20260504215036 53 165 3.0 8.0 0.05 0.06 0.06 90 1017.0
20260504214536 53 153 4.0 9.0 0.04 0.05 0.05 90 1017.0
20260504214034 53 148 4.0 9.0 0.05 0.05 0.05 90 1017.1
20260504213533 53 154 3.0 7.0 0.04 0.04 0.04 90 1017.1
20260504213039 53 186 2.0 7.0 0.03 0.03 0.03 90 1017.1
20260504212533 53 161 5.0 8.0 0.02 0.02 0.02 89 1017.2
20260504212034 54 157 4.0 8.0 0.02 0.02 0.02 90 1017.3
20260504211535 54 161 4.0 9.0 0.02 0.02 0.02 90 1017.2
20260504211031 54 144 6.0 9.0 0.02 0.02 0.02 89 1017.2
20260504210531 54 148 7.0 9.0 0.02 0.02 0.02 89 1017.2
20260504210031 54 168 6.0 9.0 0.02 0.02 0.02 88 1017.1
20260504205532 54 160 5.0 8.0 0.01 0.01 0.01 88 1017.0
20260504205033 55 177 3.0 8.0 0.01 0.01 0.01 88 1017.0
20260504204534 55 179 4.0 8.0 0.01 0.01 0.01 88 1017.0
20260504204030 55 155 3.0 7.0 0.00 0.00 0.00 87 1016.9
20260504203530 55 144 1.0 6.0 0.00 0.00 0.00 87 1016.9
20260504203033 55 186 3.0 6.0 0.00 0.00 0.00 86 1017.0
20260504202530 55 167 1.0 5.0 0.00 0.00 0.00 86 1017.0
20260504202029 55 131 1.0 5.0 0.00 0.00 0.00 85 1017.0
20260504201529 55 174 1.0 5.0 0.00 0.00 0.00 85 1017.0
20260504201028 55 174 3.0 5.0 0.00 0.00 0.00 84 1017.0
20260504200528 55 175 1.0 6.0 0.00 0.00 0.00 84 1017.0
20260504200028 55 161 3.0 6.0 0.00 0.00 0.00 83 1017.0
20260504195529 55 167 1.0 9.0 0.00 0.00 0.00 83 1017.1
20260504195028 55 187 5.0 9.0 0.00 0.00 0.00 83 1016.9
20260504194527 56 214 6.0 9.0 0.00 0.00 0.00 81 1017.0
20260504194026 56 198 4.0 9.0 0.00 0.00 0.00 81 1017.0
20260504193528 56 163 4.0 9.0 0.00 0.00 0.00 81 1017.1
20260504193027 56 159 5.0 10.0 0.00 0.00 0.00 81 1017.1
20260504192526 55 188 5.0 10.0 0.00 0.00 0.00 81 1017.3
20260504192028 56 193 5.0 8.0 0.00 0.00 0.00 81 1017.4
20260504191534 56 198 4.0 9.0 0.00 0.00 0.00 81 1017.4
20260504191024 56 184 6.0 9.0 0.00 0.00 0.00 81 1017.4
20260504190525 55 145 6.0 10.0 0.00 0.00 0.00 81 1017.4
20260504190024 55 164 6.0 11.0 0.00 0.00 0.00 81 1017.3
20260504185523 56 200 7.0 11.0 0.00 0.00 0.00 81 1017.3
20260504185022 56 161 6.0 11.0 0.00 0.00 0.00 82 1017.2
20260504184539 56 162 5.0 11.0 0.00 0.00 0.00 83 1017.1
20260504184022 56 159 8.0 11.0 0.00 0.00 0.00 82 1017.3
20260504183522 56 192 6.0 12.0 0.00 0.00 0.00 82 1017.3
20260504183022 56 209 6.0 13.0 0.00 0.00 0.00 82 1017.3
20260504182524 56 192 8.0 13.0 0.00 0.00 0.00 81 1017.3
20260504182021 56 185 8.0 13.0 0.00 0.00 0.00 81 1017.3
20260504181520 56 199 6.0 13.0 0.00 0.00 0.00 82 1017.3
20260504181020 55 211 9.0 13.0 0.00 0.00 0.00 81 1017.1
20260504180520 56 192 7.0 12.0 0.00 0.00 0.00 81 1017.1
20260504180020 56 178 9.0 12.0 0.00 0.00 0.00 80 1017.0
20260504175518 56 182 6.0 10.0 0.00 0.00 0.00 80 1016.9
20260504175021 56 190 6.0 11.0 0.00 0.00 0.00 80 1017.0
20260504174517 56 178 5.0 12.0 0.00 0.00 0.00 79 1016.9
20260504174017 56 172 6.0 12.0 0.00 0.00 0.00 80 1016.9
20260504173517 56 183 4.0 11.0 0.00 0.00 0.00 80 1016.9
20260504173017 56 180 6.0 9.0 0.00 0.00 0.00 79 1016.8
20260504172516 56 156 6.0 9.0 0.00 0.00 0.00 79 1016.9
20260504172016 56 159 5.0 9.0 0.00 0.00 0.00 79 1016.8
20260504171515 56 201 5.0 9.0 0.00 0.00 0.00 79 1016.8
20260504171015 56 172 4.0 9.0 0.00 0.00 0.00 79 1016.8
20260504170515 56 148 6.0 11.0 0.00 0.00 0.00 78 1016.8
20260504151004 55 150 6.0 12.0 0.00 0.00 0.00 80 1016.2
20260504150509 55 163 7.0 10.0 0.00 0.00 0.00 80 1016.1
20260504141003 53 156 2.0 7.0 0.00 0.00 0.00 83 1016.2
20260504140502 53 164 2.0 7.0 0.00 0.00 0.00 83 1016.2
20260504130555 53 156 5.0 9.0 0.00 0.00 0.00 82 1015.6
20260504110547 53 150 1.0 4.0 0.00 0.00 0.00 81 1015.5
20260504100542 53 151 0.0 5.0 0.00 0.00 0.00 80 1015.4
20260504081531 55 152 1.0 4.0 0.00 0.00 0.00 78 1015.6
20260504081034 55 148 1.0 2.0 0.00 0.00 0.00 78 1015.5
20260504080531 55 149 0.0 4.0 0.00 0.00 0.00 78 1015.5
20260504050518 58 153 6.0 10.0 0.00 0.00 0.00 72 1015.1
20260504050017 58 159 1.0 6.0 0.00 0.00 0.00 72 1014.9
20260504045515 59 150 1.0 8.0 0.00 0.00 0.00 71 1014.8
20260504045015 59 155 5.0 9.0 0.00 0.00 0.00 71 1014.7
20260504044515 59 157 6.0 9.0 0.00 0.00 0.00 71 1014.9
20260504044016 59 152 5.0 7.0 0.00 0.00 0.00 71 1014.8
20260504043522 59 146 4.0 7.0 0.00 0.00 0.00 71 1014.7
20260504043014 59 149 5.0 7.0 0.00 0.00 0.00 71 1014.7
20260504042514 59 146 4.0 8.0 0.00 0.00 0.00 70 1014.6
20260504042013 60 148 1.0 7.0 0.00 0.00 0.00 70 1014.6
20260504041612 60 153 0.0 6.0 0.00 0.00 0.00 70 1014.6
20260504041012 60 154 4.0 7.0 0.00 0.00 0.00 69 1014.6
20260504040512 60 154 4.0 6.0 0.00 0.00 0.00 69 1014.5
20260504040014 60 157 2.0 5.0 0.00 0.00 0.00 70 1014.2
20260504035511 61 184 0.0 7.0 0.00 0.00 0.00 69 1014.2
20260504035010 61 184 4.0 8.0 0.00 0.00 0.00 68 1014.2
20260504034517 61 184 3.0 9.0 0.00 0.00 0.00 68 1014.2
20260504034010 61 178 3.0 11.0 0.00 0.00 0.00 68 1014.0
20260504033511 61 194 5.0 11.0 0.00 0.00 0.00 68 1014.0
20260504033010 61 168 4.0 9.0 0.00 0.00 0.00 68 1013.7
20260504032510 61 190 4.0 10.0 0.00 0.00 0.00 68 1013.7
20260504032009 62 185 5.0 10.0 0.00 0.00 0.00 67 1013.7
20260504031509 62 181 4.0 9.0 0.00 0.00 0.00 67 1013.6
20260504031010 62 152 5.0 9.0 0.00 0.00 0.00 67 1013.6
20260504030508 62 184 5.0 9.0 0.00 0.00 0.00 67 1013.4
20260504030008 62 209 4.0 9.0 0.00 0.00 0.00 67 1013.4
20260504025508 62 208 4.0 9.0 0.00 0.00 0.00 66 1013.3
20260504025009 63 210 6.0 9.0 0.00 0.00 0.00 66 1013.3
20260504024510 63 221 6.0 9.0 0.00 0.00 0.00 66 1013.3
20260504024007 63 207 6.0 8.0 0.00 0.00 0.00 66 1013.2
20260504023507 63 190 3.0 7.0 0.00 0.00 0.00 67 1013.1
20260504023008 63 176 3.0 6.0 0.00 0.00 0.00 66 1013.0
20260504022506 63 207 1.0 8.0 0.00 0.00 0.00 66 1013.1
20260504022007 63 209 6.0 8.0 0.00 0.00 0.00 65 1013.0
20260504021507 63 221 3.0 7.0 0.00 0.00 0.00 66 1013.0
20260504021005 63 225 3.0 8.0 0.00 0.00 0.00 66 1013.1
20260504020506 63 227 4.0 8.0 0.00 0.00 0.00 65 1013.1
20260504020005 63 215 5.0 8.0 0.00 0.00 0.00 66 1013.0
20260504015505 64 169 3.0 6.0 0.00 0.00 0.00 67 1013.0
20260504015008 64 236 0.0 6.0 0.00 0.00 0.00 67 1013.0
20260504014507 64 189 2.0 5.0 0.00 0.00 0.00 68 1012.9
20260504014008 64 192 2.0 5.0 0.00 0.00 0.00 66 1012.9
20260504013506 64 192 1.0 8.0 0.00 0.00 0.00 66 1013.0
20260504013005 64 180 4.0 9.0 0.00 0.00 0.00 66 1012.8
20260504012505 64 184 6.0 8.0 0.00 0.00 0.00 66 1012.9
20260504012006 64 192 2.0 6.0 0.00 0.00 0.00 66 1012.9
20260504011504 64 159 3.0 8.0 0.00 0.00 0.00 66 1012.7
20260504011004 64 166 4.0 9.0 0.00 0.00 0.00 66 1013.0
20260504010502 64 177 2.0 9.0 0.00 0.00 0.00 67 1013.0
20260504010002 64 194 4.0 8.0 0.00 0.00 0.00 67 1013.1
20260504005502 64 173 4.0 8.0 0.00 0.00 0.00 67 1013.1
20260504005001 63 182 1.0 7.0 0.00 0.00 0.00 68 1013.1
20260504004500 63 140 5.0 7.0 0.00 0.00 0.00 69 1013.1
20260504004000 62 156 4.0 7.0 0.00 0.00 0.00 68 1013.1
20260504003500 62 194 4.0 8.0 0.00 0.00 0.00 69 1013.1
20260504003100 62 194 6.0 8.0 0.00 0.00 0.00 68 1012.9
20260504002600 62 186 5.0 9.0 0.00 0.00 0.00 69 1012.9
20260504002101 62 199 6.0 10.0 0.00 0.00 0.00 70 1012.9
20260504001600 62 198 6.0 10.0 0.00 0.00 0.00 70 1012.9
20260504001100 62 207 6.0 9.0 0.00 0.00 0.00 69 1012.9
20260504000559 62 173 3.0 8.0 0.00 0.00 0.00 71 1012.9
20260504000137 62 218 5.0 10.0 0.00 0.00 0.00 69 1013.0
20260503235600 63 217 7.0 9.0 0.00 0.00 0.00 68 1013.1
20260503235058 63 205 6.0 8.0 0.00 0.00 0.00 68 1013.1
20260503234603 63 176 5.0 8.0 0.00 0.00 0.00 69 1013.1
20260503234058 63 188 3.0 6.0 0.00 0.00 0.00 68 1013.2
20260503233558 63 186 0.0 6.0 0.00 0.00 0.00 69 1013.3
20260503233057 63 157 3.0 6.0 0.00 0.00 0.00 68 1013.4